Location: Eexterzandvoort
(53.0303°N, 6.7884°E)
Time: 01:57:37
(UTC+00:00)

KORONAS-FOTON - Pass Details

Date: 19 May 2025
Orbit: 447 x 463 km, 82.4° (Epoch: 22 June)

Event Time Altitude Azimuth Distance (km) Brightness Sun altitude
Exits shadow 23:23:14 29° 231° (SW) 867 4.6 -17.0°
Maximum altitude 23:24:36 46° 286° (WNW) 631 4.3 -17.0°
Drops below altitude 10° 23:27:59 10° 0° (N) 1,605 7.6 -17.0°
Sets 23:30:07 0° 7° (N) 2,481 9.0 -17.0°
